Weather History for Estherville, IA

Change the Weather History Date:

Sunday, June 10, 2012

  Actual Average Record
Temperature  
Mean Temperature 78 °F 67 °F  
Max Temperature 92 °F 78 °F 98 °F (1956)
Min Temperature 64 °F 56 °F 41 °F (1989)
Degree Days  
Heating Degree Days 0 2  
Month to date heating degree days 11 25  
Since 1 June heating degree days 11 25  
Since 1 July heating degree days 6184 7723  
Cooling Degree Days 13 4  
Month to date cooling degree days 66 29  
Year to date cooling degree days 155 65  
Since 1 June cooling degree days 66 29  
Growing Degree Days 28 (Base 50)    
Moisture  
Dew Point 63 °F    
Average Humidity 65    
Maximum Humidity 93    
Minimum Humidity 36    
Precipitation  
Precipitation 0.81 in 0.14 in 2.37 in (1999)
Month to date precipitation 0.99 1.48  
Year to date precipitation 13.36  
Sea Level Pressure  
Sea Level Pressure 29.68 in    
Wind  
Wind Speed 18 mph (SW)    
Max Wind Speed 33 mph    
Max Gust Speed 47 mph    
Visibility 8 miles    
Events Rain , Thunderstorm    
T = Trace of Precipitation, MM = Missing Value Source: NWS Daily Summary

Daily Weather History Graph

Daily Weather History Graph

Search for Another Location

Airport:

Trip Planner

Search our weather history database for the weather conditions in past years. The results will help you decide how hot, cold, wet, or windy it might be!

Date:

Astronomy

Jun. 10, 2012 Rise Set
Actual Time 5:38 AM CDT 8:59 PM CDT
Civil Twilight 5:02 AM CDT 9:34 PM CDT
Nautical Twilight 4:16 AM CDT 10:21 PM CDT
Astronomical Twilight 3:19 AM CDT 11:18 PM CDT
Moon 12:43 AM CDT (6/10) 12:37 PM CDT (6/10)
Length of Visible Light 16h 32m
Length of Day
15h 21m
Waning Gibbous, 58% of the Moon is Illuminated
Jun 10
Waning Gibbous
Jun 11
Last Quarter
Jun 19
New
Jun 26
First Quarter
Jul 3
Full

Hourly Weather History & Observations

Time (CDT) Temp. Heat Index Dew Point Humidity Pressure Visibility Wind Dir Wind Speed Gust Speed Precip Events Conditions
12:52 AM 75.0 °F - 55.9 °F 51% 29.65 in 10.0 mi South 16.1 mph - N/A   Clear
1:52 AM 75.0 °F - 57.0 °F 53% 29.63 in 10.0 mi South 19.6 mph 26.5 mph N/A   Clear
2:52 AM 73.9 °F - 57.9 °F 57% 29.62 in 10.0 mi South 19.6 mph - N/A   Clear
3:52 AM 72.0 °F - 57.9 °F 61% 29.61 in 10.0 mi South 18.4 mph - N/A   Clear
4:52 AM 71.1 °F - 57.9 °F 63% 29.63 in 10.0 mi South 16.1 mph - N/A   Clear
5:52 AM 71.1 °F - 57.9 °F 63% 29.65 in 10.0 mi South 17.3 mph - N/A   Clear
6:52 AM 72.0 °F - 59.0 °F 64% 29.66 in 9.0 mi South 17.3 mph - N/A   Clear
7:52 AM 75.0 °F - 60.1 °F 60% 29.67 in 10.0 mi South 20.7 mph 27.6 mph N/A   Clear
8:52 AM 78.1 °F - 61.0 °F 56% 29.68 in 10.0 mi South 21.9 mph - N/A   Mostly Cloudy
10:52 AM 84.0 °F 84.9 °F 63.0 °F 49% 29.65 in 10.0 mi South 28.8 mph 33.4 mph N/A   Clear
11:52 AM 87.1 °F 88.3 °F 64.0 °F 46% 29.64 in 10.0 mi South 27.6 mph 38.0 mph N/A   Clear
1:52 PM 90.0 °F 90.3 °F 62.1 °F 39% 29.62 in 10.0 mi South 24.2 mph 38.0 mph N/A   Mostly Cloudy
2:52 PM 91.0 °F 90.9 °F 61.0 °F 36% 29.61 in 10.0 mi South 26.5 mph 36.8 mph N/A   Mostly Cloudy
3:52 PM 88.0 °F 87.6 °F 60.1 °F 39% 29.62 in 10.0 mi South 24.2 mph 34.5 mph N/A   Mostly Cloudy
4:52 PM 88.0 °F 88.4 °F 62.1 °F 42% 29.62 in 10.0 mi South 19.6 mph 28.8 mph N/A   Overcast
5:52 PM 87.1 °F 87.8 °F 63.0 °F 44% 29.60 in 10.0 mi South 10.4 mph 21.9 mph N/A   Overcast
6:29 PM 80.6 °F 82.7 °F 66.2 °F 61% 29.66 in 8.0 mi West 20.7 mph 41.4 mph N/A Thunderstorm Thunderstorm
6:35 PM 73.4 °F - 68.0 °F 83% 29.69 in 1.8 mi WSW 25.3 mph 47.2 mph 0.13 in Rain , Thunderstorm Heavy Thunderstorms and Rain
6:39 PM 73.4 °F - 69.8 °F 88% 29.69 in 0.8 mi SSW 23.0 mph 47.2 mph 0.25 in Rain , Thunderstorm Heavy Thunderstorms and Rain
6:50 PM 71.6 °F - 66.2 °F 83% 29.66 in 1.2 mi SSW 20.7 mph 31.1 mph 0.38 in Rain , Thunderstorm Heavy Thunderstorms and Rain
6:52 PM 72.0 °F - 64.9 °F 78% 29.64 in 2.0 mi South 18.4 mph 28.8 mph 0.38 in Rain , Thunderstorm Heavy Thunderstorms and Rain
7:00 PM 73.4 °F - 66.2 °F 78% 29.66 in 8.0 mi South 11.5 mph 25.3 mph 0.01 in Rain , Thunderstorm Light Thunderstorms and Rain
7:21 PM 71.6 °F - 66.2 °F 83% 29.69 in 10.0 mi WSW 9.2 mph - 0.01 in   Mostly Cloudy
7:45 PM 71.6 °F - 68.0 °F 88% 29.71 in 6.0 mi SW 25.3 mph 35.7 mph 0.04 in Rain , Thunderstorm Light Thunderstorms and Rain
7:52 PM 71.1 °F - 68.0 °F 90% 29.68 in 2.0 mi WSW 21.9 mph 35.7 mph 0.14 in Rain , Thunderstorm Heavy Thunderstorms and Rain
8:05 PM 69.8 °F - 66.2 °F 88% 29.68 in 3.0 mi West 11.5 mph 17.3 mph 0.09 in Rain Heavy Rain
8:40 PM 69.8 °F - 66.2 °F 88% 29.72 in 10.0 mi West 11.5 mph - 0.10 in Thunderstorm Mostly Cloudy
8:52 PM 68.0 °F - 64.9 °F 90% 29.72 in 10.0 mi West 16.1 mph 26.5 mph 0.10 in Rain , Thunderstorm Light Rain
8:59 PM 68.0 °F - 64.4 °F 88% 29.74 in 9.0 mi WNW 12.7 mph - 0.00 in Rain Light Rain
9:07 PM 66.2 °F - 64.4 °F 94% 29.75 in 7.0 mi West 12.7 mph 17.3 mph 0.01 in Rain , Thunderstorm Light Rain
9:47 PM 66.2 °F - 64.4 °F 94% 29.75 in 7.0 mi NW 5.8 mph - 0.04 in Rain Rain
9:52 PM 66.9 °F - 64.0 °F 90% 29.73 in 6.0 mi NW 8.1 mph - 0.05 in Rain Light Rain
10:02 PM 66.2 °F - 64.4 °F 94% 29.75 in 9.0 mi NW 11.5 mph - 0.00 in Rain , Thunderstorm Light Rain
10:43 PM 66.2 °F - 62.6 °F 88% 29.77 in 10.0 mi North 6.9 mph - 0.14 in   Overcast
10:52 PM 66.0 °F - 63.0 °F 90% 29.75 in 10.0 mi North 6.9 mph - 0.14 in   Overcast
11:52 PM 66.0 °F - 64.0 °F 93% 29.78 in 9.0 mi NE 6.9 mph - N/A   Overcast